Time,TemperatureF,DewpointF,PressureIn,WindDirection,WindDirectionDegrees,WindSpeedMPH,WindSpeedGustMPH,Humidity,HourlyPrecipIn,Conditions,Clouds,dailyrainin,SoftwareType,DateUTC
2013-08-12 00:00:00,69.6,42.9,0.00,West,274,7.1,9.8,38,0.00,,,0.00,VWS V15.00,2013-08-12 04:00:00,
2013-08-12 00:01:00,69.4,44.7,0.00,WNW,298,5.3,8.0,41,0.00,,,0.00,VWS V14.01,2013-08-12 04:01:00,
2013-08-12 00:04:00,69.4,44.1,0.00,WNW,295,7.1,8.0,40,0.00,,,0.00,VWS V14.01,2013-08-12 04:04:00,
2013-08-12 00:09:00,69.4,44.7,0.00,WNW,287,5.8,8.0,41,0.00,,,0.00,VWS V14.01,2013-08-12 04:09:00,
2013-08-12 00:14:00,69.4,44.1,0.00,WNW,297,4.9,9.8,40,0.00,,,0.00,VWS V14.01,2013-08-12 04:14:00,
2013-08-12 00:19:00,69.4,43.4,0.00,West,270,7.6,9.8,39,0.00,,,0.00,VWS V14.01,2013-08-12 04:19:00,
2013-08-12 00:24:00,69.4,43.4,0.00,West,276,7.6,9.8,39,0.00,,,0.00,VWS V14.01,2013-08-12 04:24:00,
2013-08-12 00:29:00,69.4,44.1,0.00,West,277,7.1,9.8,40,0.00,,,0.00,VWS V14.01,2013-08-12 04:29:00,
2013-08-12 00:34:00,69.4,44.1,0.00,West,276,5.8,9.8,40,0.00,,,0.00,VWS V14.01,2013-08-12 04:34:00,
2013-08-12 00:39:00,69.3,44.6,0.00,WNW,295,6.7,9.8,41,0.00,,,0.00,VWS V14.01,2013-08-12 04:39:00,
2013-08-12 00:44:00,69.3,44.6,0.00,WNW,288,5.3,9.8,41,0.00,,,0.00,VWS V14.01,2013-08-12 04:44:00,
2013-08-12 00:49:00,69.3,44.6,0.00,WNW,291,7.1,9.8,41,0.00,,,0.00,VWS V14.01,2013-08-12 04:49:00,
2013-08-12 00:54:00,69.3,45.2,0.00,West,276,4.4,9.8,42,0.00,,,0.00,VWS V14.01,2013-08-12 04:54:00,
2013-08-12 00:59:00,69.1,45.0,0.00,WNW,292,4.9,9.8,42,0.00,,,0.00,VWS V14.01,2013-08-12 04:59:00,
2013-08-12 01:00:00,69.4,44.7,0.00,WNW,292,5.3,8.9,41,0.00,,,0.00,VWS V15.00,2013-08-12 05:00:00,
2013-08-12 01:04:00,69.1,45.7,0.00,WNW,282,4.9,5.8,43,0.00,,,0.00,VWS V14.01,2013-08-12 05:04:00,
2013-08-12 01:09:00,69.1,45.7,0.00,WNW,285,4.0,5.8,43,0.00,,,0.00,VWS V14.01,2013-08-12 05:09:00,
2013-08-12 01:14:00,68.9,46.1,0.00,WNW,293,5.8,6.7,44,0.00,,,0.00,VWS V14.01,2013-08-12 05:14:00,
2013-08-12 01:19:00,69.1,46.3,0.00,West,281,5.8,7.6,44,0.00,,,0.00,VWS V14.01,2013-08-12 05:19:00,
2013-08-12 01:24:00,69.1,46.3,0.00,SW,217,1.8,8.5,44,0.00,,,0.00,VWS V14.01,2013-08-12 05:24:00,
2013-08-12 01:29:00,68.9,46.1,0.00,West,277,4.4,8.5,44,0.00,,,0.00,VWS V14.01,2013-08-12 05:29:00,
2013-08-12 01:34:00,68.9,46.7,0.00,West,263,4.0,8.5,45,0.00,,,0.00,VWS V14.01,2013-08-12 05:34:00,
2013-08-12 01:39:00,68.9,47.3,0.00,West,281,5.3,8.5,46,0.00,,,0.00,VWS V14.01,2013-08-12 05:39:00,
2013-08-12 01:44:00,68.9,47.9,0.00,West,272,4.4,8.5,47,0.00,,,0.00,VWS V14.01,2013-08-12 05:44:00,
2013-08-12 01:49:00,68.9,47.3,0.00,West,265,7.6,8.5,46,0.00,,,0.00,VWS V14.01,2013-08-12 05:49:00,
2013-08-12 01:54:00,68.9,47.3,0.00,WNW,300,4.4,8.5,46,0.00,,,0.00,VWS V14.01,2013-08-12 05:54:00,
2013-08-12 01:59:00,68.9,47.3,0.00,WNW,287,5.8,8.5,46,0.00,,,0.00,VWS V14.01,2013-08-12 05:59:00,
2013-08-12 02:00:00,69.1,45.0,0.00,West,279,4.9,9.8,42,0.00,,,0.00,VWS V15.00,2013-08-12 06:00:00,
2013-08-12 02:04:00,68.9,47.3,0.00,WNW,288,1.8,5.3,46,0.00,,,0.00,VWS V14.01,2013-08-12 06:04:00,
2013-08-12 02:09:00,68.9,47.9,0.00,West,270,4.0,7.1,47,0.00,,,0.00,VWS V14.01,2013-08-12 06:09:00,
2013-08-12 02:14:00,68.9,47.9,0.00,West,278,1.8,8.0,47,0.00,,,0.00,VWS V14.01,2013-08-12 06:14:00,
2013-08-12 02:18:00,68.9,47.9,0.00,West,280,5.8,8.0,47,0.00,,,0.00,VWS V14.01,2013-08-12 06:18:00,
2013-08-12 02:23:00,69.1,48.6,0.00,West,271,4.9,8.0,48,0.00,,,0.00,VWS V14.01,2013-08-12 06:23:00,
2013-08-12 02:28:00,69.1,49.7,0.00,WNW,289,5.3,8.0,50,0.00,,,0.00,VWS V14.01,2013-08-12 06:28:00,
2013-08-12 02:33:00,68.9,49.5,0.00,WNW,282,4.9,8.0,50,0.00,,,0.00,VWS V14.01,2013-08-12 06:33:00,
2013-08-12 02:38:00,68.9,49.5,0.00,West,280,7.1,8.0,50,0.00,,,0.00,VWS V14.01,2013-08-12 06:38:00,
2013-08-12 02:43:00,68.9,49.0,0.00,West,278,4.9,8.0,49,0.00,,,0.00,VWS V14.01,2013-08-12 06:43:00,
2013-08-12 02:48:00,68.9,49.5,0.00,West,278,5.3,8.0,50,0.00,,,0.00,VWS V14.01,2013-08-12 06:48:00,
2013-08-12 02:53:00,68.9,49.5,0.00,NW,304,4.9,8.0,50,0.00,,,0.00,VWS V14.01,2013-08-12 06:53:00,
2013-08-12 02:58:00,69.1,49.7,0.00,West,274,1.8,8.0,50,0.00,,,0.00,VWS V14.01,2013-08-12 06:58:00,
2013-08-12 03:00:00,68.9,47.3,0.00,WNW,282,4.4,8.5,46,0.00,,,0.00,VWS V15.00,2013-08-12 07:00:00,
2013-08-12 03:03:00,69.1,50.2,0.00,WNW,283,5.8,7.1,51,0.00,,,0.00,VWS V14.01,2013-08-12 07:03:00,
2013-08-12 03:08:00,69.3,50.4,0.00,WNW,296,4.4,7.1,51,0.00,,,0.00,VWS V14.01,2013-08-12 07:08:00,
2013-08-12 03:13:00,69.3,50.9,0.00,WNW,286,5.3,7.1,52,0.00,,,0.00,VWS V14.01,2013-08-12 07:13:00,
2013-08-12 03:18:00,69.3,50.9,0.00,WNW,289,4.9,7.1,52,0.00,,,0.00,VWS V14.01,2013-08-12 07:18:00,
2013-08-12 03:23:00,69.3,51.4,0.00,WNW,285,4.0,7.1,53,0.00,,,0.00,VWS V14.01,2013-08-12 07:23:00,
2013-08-12 03:28:00,69.1,51.8,0.00,WNW,284,5.8,7.1,54,0.00,,,0.00,VWS V14.01,2013-08-12 07:28:00,
2013-08-12 03:33:00,69.1,51.8,0.00,West,276,4.0,7.1,54,0.00,,,0.00,VWS V14.01,2013-08-12 07:33:00,
2013-08-12 03:38:00,68.9,52.1,0.00,WNW,282,4.4,7.1,55,0.00,,,0.00,VWS V14.01,2013-08-12 07:38:00,
2013-08-12 03:43:00,68.9,52.1,0.00,West,264,4.0,7.1,55,0.00,,,0.00,VWS V14.01,2013-08-12 07:43:00,
2013-08-12 03:48:00,68.7,52.4,0.00,West,275,4.0,7.1,56,0.00,,,0.00,VWS V14.01,2013-08-12 07:48:00,
2013-08-12 03:53:00,68.7,52.4,0.00,West,273,1.8,7.1,56,0.00,,,0.00,VWS V14.01,2013-08-12 07:53:00,
2013-08-12 03:58:00,68.7,52.9,0.00,West,275,1.8,7.1,57,0.00,,,0.00,VWS V14.01,2013-08-12 07:58:00,
2013-08-12 04:00:00,69.1,49.7,0.00,WNW,283,5.3,8.0,50,0.00,,,0.00,VWS V15.00,2013-08-12 08:00:00,
2013-08-12 04:03:00,68.7,52.9,0.00,West,279,1.8,4.0,57,0.00,,,0.00,VWS V14.01,2013-08-12 08:03:00,
2013-08-12 04:08:00,68.7,53.4,0.00,WNW,299,4.4,5.3,58,0.00,,,0.00,VWS V14.01,2013-08-12 08:08:00,
2013-08-12 04:13:00,68.9,53.5,0.00,SW,235,1.8,5.3,58,0.00,,,0.00,VWS V14.01,2013-08-12 08:13:00,
2013-08-12 04:18:00,68.7,53.4,0.00,WNW,293,1.8,5.8,58,0.00,,,0.00,VWS V14.01,2013-08-12 08:18:00,
2013-08-12 04:23:00,68.7,53.4,0.00,NW,320,1.8,5.8,58,0.00,,,0.00,VWS V14.01,2013-08-12 08:23:00,
2013-08-12 04:28:00,68.7,53.4,0.00,West,270,1.8,5.8,58,0.00,,,0.00,VWS V14.01,2013-08-12 08:28:00,
2013-08-12 04:33:00,68.7,53.4,0.00,WNW,293,5.3,5.8,58,0.00,,,0.00,VWS V14.01,2013-08-12 08:33:00,
2013-08-12 04:38:00,68.7,53.4,0.00,West,272,1.8,5.8,58,0.00,,,0.00,VWS V14.01,2013-08-12 08:38:00,
2013-08-12 04:43:00,68.7,53.4,0.00,West,278,1.8,5.8,58,0.00,,,0.00,VWS V14.01,2013-08-12 08:43:00,
2013-08-12 04:48:00,68.7,53.4,0.00,West,271,1.8,5.8,58,0.00,,,0.00,VWS V14.01,2013-08-12 08:48:00,
2013-08-12 04:53:00,68.7,52.9,0.00,WNW,284,1.8,5.8,57,0.00,,,0.00,VWS V14.01,2013-08-12 08:53:00,
2013-08-12 04:58:00,68.7,52.9,0.00,WNW,285,1.8,5.8,57,0.00,,,0.00,VWS V14.01,2013-08-12 08:58:00,
2013-08-12 05:00:00,68.7,52.9,0.00,West,261,1.8,7.1,57,0.00,,,0.00,VWS V15.00,2013-08-12 09:00:00,
2013-08-12 05:03:00,68.5,52.7,0.00,West,261,1.8,1.8,57,0.00,,,0.00,VWS V14.01,2013-08-12 09:03:00,
2013-08-12 05:08:00,68.7,53.4,0.00,West,276,1.8,4.0,58,0.00,,,0.00,VWS V14.01,2013-08-12 09:08:00,
2013-08-12 05:13:00,68.7,53.4,0.00,WSW,253,4.0,4.0,58,0.00,,,0.00,VWS V14.01,2013-08-12 09:13:00,
2013-08-12 05:18:00,68.7,53.8,0.00,West,266,1.8,4.0,59,0.00,,,0.00,VWS V14.01,2013-08-12 09:18:00,
2013-08-12 05:23:00,68.7,53.8,0.00,SW,234,1.8,4.0,59,0.00,,,0.00,VWS V14.01,2013-08-12 09:23:00,
2013-08-12 05:28:00,68.5,53.7,0.00,WSW,251,1.8,4.0,59,0.00,,,0.00,VWS V14.01,2013-08-12 09:28:00,
2013-08-12 05:33:00,68.5,53.7,0.00,West,265,1.8,4.0,59,0.00,,,0.00,VWS V14.01,2013-08-12 09:33:00,
2013-08-12 05:38:00,68.5,53.7,0.00,SSW,210,1.8,4.0,59,0.00,,,0.00,VWS V14.01,2013-08-12 09:38:00,
2013-08-12 05:43:00,68.5,53.7,0.00,SW,221,1.8,4.0,59,0.00,,,0.00,VWS V14.01,2013-08-12 09:43:00,
2013-08-12 05:48:00,68.5,54.1,0.00,WNW,289,1.8,4.0,60,0.00,,,0.00,VWS V14.01,2013-08-12 09:48:00,
2013-08-12 05:53:00,68.5,54.1,0.00,WSW,247,1.8,4.0,60,0.00,,,0.00,VWS V14.01,2013-08-12 09:53:00,
2013-08-12 05:58:00,68.7,54.3,0.00,West,266,1.8,4.0,60,0.00,,,0.00,VWS V14.01,2013-08-12 09:58:00,
2013-08-12 06:00:00,68.5,52.7,0.00,WSW,255,1.8,5.8,57,0.00,,,0.00,VWS V15.00,2013-08-12 10:00:00,
2013-08-12 06:03:00,68.7,54.3,0.00,West,262,1.8,1.8,60,0.00,,,0.00,VWS V14.01,2013-08-12 10:03:00,
2013-08-12 06:08:00,68.7,54.3,0.00,SW,226,1.8,1.8,60,0.00,,,0.00,VWS V14.01,2013-08-12 10:08:00,
2013-08-12 06:13:00,68.7,54.3,0.00,WSW,244,1.8,4.4,60,0.00,,,0.00,VWS V14.01,2013-08-12 10:13:00,
2013-08-12 06:18:00,68.9,54.9,0.00,WNW,284,4.9,4.9,61,0.00,,,0.00,VWS V14.01,2013-08-12 10:18:00,
2013-08-12 06:23:00,69.1,55.1,0.00,West,277,1.8,5.8,61,0.00,,,0.00,VWS V14.01,2013-08-12 10:23:00,
2013-08-12 06:28:00,69.3,54.8,0.00,WSW,257,1.8,5.8,60,0.00,,,0.00,VWS V14.01,2013-08-12 10:28:00,
2013-08-12 06:33:00,69.6,54.7,0.00,WNW,282,1.8,7.6,59,0.00,,,0.00,VWS V14.01,2013-08-12 10:33:00,
2013-08-12 06:38:00,69.6,54.7,0.00,WNW,286,4.9,7.6,59,0.00,,,0.00,VWS V14.01,2013-08-12 10:38:00,
2013-08-12 06:43:00,69.8,54.4,0.00,WNW,283,4.4,7.6,58,0.00,,,0.00,VWS V14.01,2013-08-12 10:43:00,
2013-08-12 06:48:00,69.8,53.9,0.00,WNW,291,4.4,7.6,57,0.00,,,0.00,VWS V14.01,2013-08-12 10:48:00,
2013-08-12 06:53:00,70.0,54.1,0.00,SW,228,4.4,7.6,57,0.00,,,0.00,VWS V14.01,2013-08-12 10:53:00,
2013-08-12 06:58:00,70.0,54.1,0.00,West,266,4.4,7.6,57,0.00,,,0.00,VWS V14.01,2013-08-12 10:58:00,
2013-08-12 07:00:00,68.7,54.3,0.00,West,266,1.8,4.0,60,0.00,,,0.00,VWS V15.00,2013-08-12 11:00:00,
2013-08-12 07:03:00,70.0,54.5,0.00,NW,304,5.3,5.3,58,0.00,,,0.00,VWS V14.01,2013-08-12 11:03:00,
2013-08-12 07:08:00,70.0,54.5,0.00,West,280,1.8,5.8,58,0.00,,,0.00,VWS V14.01,2013-08-12 11:08:00,
2013-08-12 07:13:00,70.2,54.7,0.00,West,259,5.3,5.8,58,0.00,,,0.00,VWS V14.01,2013-08-12 11:13:00,
2013-08-12 07:18:00,70.2,54.7,0.00,WSW,256,1.8,5.8,58,0.00,,,0.00,VWS V14.01,2013-08-12 11:18:00,
2013-08-12 07:23:00,70.2,54.7,0.00,SW,220,4.9,6.7,58,0.00,,,0.00,VWS V14.01,2013-08-12 11:23:00,
2013-08-12 07:28:00,70.2,54.7,0.00,WNW,288,4.4,6.7,58,0.00,,,0.00,VWS V14.01,2013-08-12 11:28:00,
2013-08-12 07:33:00,70.2,54.7,0.00,NW,317,6.2,6.7,58,0.00,,,0.00,VWS V14.01,2013-08-12 11:33:00,
2013-08-12 07:38:00,70.2,54.7,0.00,WSW,252,6.7,6.7,58,0.00,,,0.00,VWS V14.01,2013-08-12 11:38:00,
2013-08-12 07:43:00,70.2,55.2,0.00,WSW,241,4.4,7.6,59,0.00,,,0.00,VWS V14.01,2013-08-12 11:43:00,
2013-08-12 07:48:00,70.2,55.6,0.00,WNW,284,1.8,7.6,60,0.00,,,0.00,VWS V14.01,2013-08-12 11:48:00,
2013-08-12 07:53:00,70.2,55.2,0.00,SW,231,5.8,9.4,59,0.00,,,0.00,VWS V14.01,2013-08-12 11:53:00,
2013-08-12 07:58:00,70.0,54.5,0.00,West,279,7.1,9.4,58,0.00,,,0.00,VWS V14.01,2013-08-12 11:58:00,
2013-08-12 08:00:00,70.0,54.1,0.00,West,260,1.8,7.6,57,0.00,,,0.00,VWS V15.00,2013-08-12 12:00:00,
2013-08-12 08:03:00,69.8,53.9,0.00,WNW,290,5.3,6.7,57,0.00,,,0.00,VWS V14.01,2013-08-12 12:03:00,
2013-08-12 08:08:00,69.6,51.8,0.00,West,275,4.0,7.1,53,0.00,,,0.00,VWS V14.01,2013-08-12 12:08:00,
2013-08-12 08:13:00,69.6,51.2,0.00,West,281,5.8,7.1,52,0.00,,,0.00,VWS V14.01,2013-08-12 12:13:00,
2013-08-12 08:18:00,69.6,50.7,0.00,WNW,293,4.0,7.1,51,0.00,,,0.00,VWS V14.01,2013-08-12 12:18:00,
2013-08-12 08:23:00,69.8,50.9,0.00,NW,312,4.9,7.1,51,0.00,,,0.00,VWS V14.01,2013-08-12 12:23:00,
2013-08-12 08:28:00,70.0,51.6,0.00,SW,234,1.8,7.1,52,0.00,,,0.00,VWS V14.01,2013-08-12 12:28:00,
2013-08-12 08:33:00,70.2,51.2,0.00,South,189,1.8,7.1,51,0.00,,,0.00,VWS V14.01,2013-08-12 12:33:00,
2013-08-12 08:38:00,70.3,50.8,0.00,SSW,196,1.8,7.1,50,0.00,,,0.00,VWS V14.01,2013-08-12 12:38:00,
2013-08-12 08:43:00,70.5,51.0,0.00,SSW,196,1.8,7.1,50,0.00,,,0.00,VWS V14.01,2013-08-12 12:43:00,
2013-08-12 08:48:00,70.7,50.6,0.00,SSW,196,1.8,7.1,49,0.00,,,0.00,VWS V14.01,2013-08-12 12:48:00,
2013-08-12 08:53:00,70.9,50.8,0.00,WSW,254,1.8,7.1,49,0.00,,,0.00,VWS V14.01,2013-08-12 12:53:00,
2013-08-12 08:58:00,71.1,50.4,0.00,SW,215,1.8,7.1,48,0.00,,,0.00,VWS V14.01,2013-08-12 12:58:00,
2013-08-12 09:00:00,70.0,54.5,0.00,NW,306,4.9,9.4,58,0.00,,,0.00,VWS V15.00,2013-08-12 13:00:00,
2013-08-12 09:03:00,71.8,49.9,0.00,West,276,1.8,1.8,46,0.00,,,0.00,VWS V14.01,2013-08-12 13:03:00,
2013-08-12 09:08:00,72.0,49.5,0.00,West,278,1.8,4.4,45,0.00,,,0.00,VWS V14.01,2013-08-12 13:08:00,
2013-08-12 09:13:00,72.0,48.9,0.00,West,277,1.8,4.4,44,0.00,,,0.00,VWS V14.01,2013-08-12 13:13:00,
2013-08-12 09:18:00,72.1,49.0,0.00,WNW,284,1.8,4.4,44,0.00,,,0.00,VWS V14.01,2013-08-12 13:18:00,
2013-08-12 09:23:00,72.3,49.2,0.00,West,271,1.8,5.8,44,0.00,,,0.00,VWS V14.01,2013-08-12 13:23:00,
2013-08-12 09:28:00,72.7,48.9,0.00,West,279,1.8,5.8,43,0.00,,,0.00,VWS V14.01,2013-08-12 13:28:00,
2013-08-12 09:33:00,72.9,48.5,0.00,WNW,285,4.4,5.8,42,0.00,,,0.00,VWS V14.01,2013-08-12 13:33:00,
2013-08-12 09:38:00,72.5,48.1,0.00,West,266,1.8,5.8,42,0.00,,,0.00,VWS V14.01,2013-08-12 13:38:00,
2013-08-12 09:43:00,72.1,47.8,0.00,WNW,287,4.0,5.8,42,0.00,,,0.00,VWS V14.01,2013-08-12 13:43:00,
2013-08-12 09:48:00,71.6,47.3,0.00,WNW,291,4.4,5.8,42,0.00,,,0.00,VWS V14.01,2013-08-12 13:48:00,
2013-08-12 09:53:00,71.2,47.6,0.00,WNW,303,4.9,7.1,43,0.00,,,0.00,VWS V14.01,2013-08-12 13:53:00,
2013-08-12 09:58:00,71.1,48.7,0.00,West,280,7.1,7.1,45,0.00,,,0.00,VWS V14.01,2013-08-12 13:58:00,
2013-08-12 10:00:00,71.2,50.6,0.00,SW,215,1.8,7.1,48,0.00,,,0.00,VWS V15.00,2013-08-12 14:00:00,
2013-08-12 10:03:00,70.9,48.5,0.00,WNW,282,6.7,7.1,45,0.00,,,0.00,VWS V14.01,2013-08-12 14:03:00,
2013-08-12 10:08:00,70.9,47.3,0.00,WNW,293,4.4,8.5,43,0.00,,,0.00,VWS V14.01,2013-08-12 14:08:00,
2013-08-12 10:13:00,70.9,46.7,0.00,WNW,290,5.8,8.5,42,0.00,,,0.00,VWS V14.01,2013-08-12 14:13:00,
2013-08-12 10:18:00,71.2,46.4,0.00,WNW,285,5.8,8.5,41,0.00,,,0.00,VWS V14.01,2013-08-12 14:18:00,
2013-08-12 10:23:00,71.4,46.5,0.00,WNW,291,4.4,8.5,41,0.00,,,0.00,VWS V14.01,2013-08-12 14:23:00,
2013-08-12 10:28:00,72.1,46.5,0.00,West,271,5.8,8.5,40,0.00,,,0.00,VWS V14.01,2013-08-12 14:28:00,
2013-08-12 10:33:00,72.9,47.2,0.00,WNW,303,4.4,8.5,40,0.00,,,0.00,VWS V14.01,2013-08-12 14:33:00,
2013-08-12 10:38:00,73.8,46.6,0.00,WNW,292,5.3,8.5,38,0.00,,,0.00,VWS V14.01,2013-08-12 14:38:00,
2013-08-12 10:43:00,73.9,46.0,0.00,WNW,287,4.9,8.5,37,0.00,,,0.00,VWS V14.01,2013-08-12 14:43:00,
2013-08-12 10:48:00,73.6,45.7,0.00,West,280,4.9,8.5,37,0.00,,,0.00,VWS V14.01,2013-08-12 14:48:00,
2013-08-12 10:53:00,73.0,46.0,0.00,WNW,293,5.8,8.5,38,0.00,,,0.00,VWS V14.01,2013-08-12 14:53:00,
2013-08-12 10:58:00,72.9,45.8,0.00,West,281,4.4,8.5,38,0.00,,,0.00,VWS V14.01,2013-08-12 14:58:00,
2013-08-12 11:00:00,71.1,48.7,0.00,WNW,285,4.4,7.1,45,0.00,,,0.00,VWS V15.00,2013-08-12 15:00:00,
2013-08-12 11:03:00,72.9,47.2,0.00,WSW,245,4.0,5.3,40,0.00,,,0.00,VWS V14.01,2013-08-12 15:03:00,
2013-08-12 11:08:00,73.4,46.3,0.00,WSW,247,1.8,5.3,38,0.00,,,0.00,VWS V14.01,2013-08-12 15:08:00,
2013-08-12 11:13:00,74.1,46.2,0.00,WNW,290,4.9,5.8,37,0.00,,,0.00,VWS V14.01,2013-08-12 15:13:00,
2013-08-12 11:18:00,74.3,44.9,0.00,West,269,1.8,7.1,35,0.00,,,0.00,VWS V14.01,2013-08-12 15:18:00,
2013-08-12 11:23:00,74.8,44.6,0.00,SW,230,4.0,7.6,34,0.00,,,0.00,VWS V14.01,2013-08-12 15:23:00,
2013-08-12 11:28:00,75.6,44.5,0.00,WNW,294,4.4,7.6,33,0.00,,,0.00,VWS V14.01,2013-08-12 15:28:00,
2013-08-12 11:33:00,75.6,44.5,0.00,WNW,284,4.0,7.6,33,0.00,,,0.00,VWS V14.01,2013-08-12 15:33:00,
2013-08-12 11:38:00,75.7,44.6,0.00,WSW,257,4.4,7.6,33,0.00,,,0.00,VWS V14.01,2013-08-12 15:38:00,
2013-08-12 11:43:00,75.9,44.0,0.00,WNW,290,5.3,7.6,32,0.00,,,0.00,VWS V14.01,2013-08-12 15:43:00,
2013-08-12 11:48:00,75.7,44.6,0.00,West,275,4.4,7.6,33,0.00,,,0.00,VWS V14.01,2013-08-12 15:48:00,
2013-08-12 11:53:00,75.6,44.5,0.00,West,272,4.4,7.6,33,0.00,,,0.00,VWS V14.01,2013-08-12 15:53:00,
2013-08-12 11:58:00,75.6,44.5,0.00,West,275,4.4,7.6,33,0.00,,,0.00,VWS V14.01,2013-08-12 15:58:00,
2013-08-12 12:00:00,72.7,45.6,0.00,WNW,301,5.3,8.5,38,0.00,,,0.00,VWS V15.00,2013-08-12 16:00:00,
2013-08-12 12:03:00,75.4,45.1,0.00,WNW,290,4.0,4.9,34,0.00,,,0.00,VWS V14.01,2013-08-12 16:03:00,
2013-08-12 12:08:00,75.2,44.9,0.00,West,279,4.0,4.9,34,0.00,,,0.00,VWS V14.01,2013-08-12 16:08:00,
2013-08-12 12:13:00,75.2,45.7,0.00,WNW,296,4.9,5.3,35,0.00,,,0.00,VWS V14.01,2013-08-12 16:13:00,
2013-08-12 12:18:00,75.2,45.7,0.00,SW,215,4.0,5.3,35,0.00,,,0.00,VWS V14.01,2013-08-12 16:18:00,
2013-08-12 12:23:00,75.0,45.5,0.00,SW,228,4.4,5.3,35,0.00,,,0.00,VWS V14.01,2013-08-12 16:23:00,
2013-08-12 12:28:00,75.0,46.3,0.00,WSW,247,1.8,5.3,36,0.00,,,0.00,VWS V14.01,2013-08-12 16:28:00,
2013-08-12 12:33:00,75.2,45.7,0.00,West,266,4.4,5.8,35,0.00,,,0.00,VWS V14.01,2013-08-12 16:33:00,
2013-08-12 12:38:00,75.4,45.9,0.00,WNW,282,4.4,6.7,35,0.00,,,0.00,VWS V14.01,2013-08-12 16:38:00,
2013-08-12 12:43:00,75.6,46.0,0.00,WSW,249,4.0,6.7,35,0.00,,,0.00,VWS V14.01,2013-08-12 16:43:00,
2013-08-12 12:48:00,76.1,46.5,0.00,West,276,4.0,8.0,35,0.00,,,0.00,VWS V14.01,2013-08-12 16:48:00,
2013-08-12 12:53:00,76.6,47.0,0.00,SW,231,4.4,8.0,35,0.00,,,0.00,VWS V14.01,2013-08-12 16:53:00,
2013-08-12 12:58:00,77.2,46.7,0.00,SW,223,5.8,8.0,34,0.00,,,0.00,VWS V14.01,2013-08-12 16:58:00,
2013-08-12 13:00:00,75.6,44.5,0.00,WNW,289,4.4,7.6,33,0.00,,,0.00,VWS V15.00,2013-08-12 17:00:00,
2013-08-12 13:03:00,77.7,46.3,0.00,West,263,1.8,4.9,33,0.00,,,0.00,VWS V14.01,2013-08-12 17:03:00,
2013-08-12 13:08:00,77.5,46.2,0.00,West,273,1.8,4.9,33,0.00,,,0.00,VWS V14.01,2013-08-12 17:08:00,
2013-08-12 13:13:00,77.2,45.9,0.00,West,267,4.9,5.8,33,0.00,,,0.00,VWS V14.01,2013-08-12 17:13:00,
2013-08-12 13:18:00,77.0,46.5,0.00,West,266,4.0,5.8,34,0.00,,,0.00,VWS V14.01,2013-08-12 17:18:00,
2013-08-12 13:23:00,76.8,47.1,0.00,WSW,249,5.3,5.8,35,0.00,,,0.00,VWS V14.01,2013-08-12 17:23:00,
2013-08-12 13:28:00,76.8,47.9,0.00,West,271,4.9,5.8,36,0.00,,,0.00,VWS V14.01,2013-08-12 17:28:00,
2013-08-12 13:33:00,77.2,48.2,0.00,WNW,289,5.3,5.8,36,0.00,,,0.00,VWS V14.01,2013-08-12 17:33:00,
2013-08-12 13:38:00,77.0,48.8,0.00,WSW,250,4.9,6.7,37,0.00,,,0.00,VWS V14.01,2013-08-12 17:38:00,
2013-08-12 13:43:00,77.0,48.8,0.00,SW,217,4.0,6.7,37,0.00,,,0.00,VWS V14.01,2013-08-12 17:43:00,
2013-08-12 13:48:00,77.2,48.2,0.00,WNW,297,4.4,6.7,36,0.00,,,0.00,VWS V14.01,2013-08-12 17:48:00,
2013-08-12 13:53:00,77.4,48.3,0.00,WNW,285,4.0,6.7,36,0.00,,,0.00,VWS V14.01,2013-08-12 17:53:00,
2013-08-12 13:58:00,77.7,47.9,0.00,West,265,4.4,6.7,35,0.00,,,0.00,VWS V14.01,2013-08-12 17:58:00,
2013-08-12 14:00:00,77.4,46.8,0.00,West,280,1.8,8.0,34,0.00,,,0.00,VWS V15.00,2013-08-12 18:00:00,
2013-08-12 14:03:00,78.3,47.6,0.00,West,263,5.8,5.8,34,0.00,,,0.00,VWS V14.01,2013-08-12 18:03:00,
2013-08-12 14:08:00,78.1,47.5,0.00,SW,218,4.9,6.7,34,0.00,,,0.00,VWS V14.01,2013-08-12 18:08:00,
2013-08-12 14:13:00,78.4,47.8,0.00,West,270,4.0,6.7,34,0.00,,,0.00,VWS V14.01,2013-08-12 18:13:00,
2013-08-12 14:18:00,78.8,47.3,0.00,SW,219,1.8,6.7,33,0.00,,,0.00,VWS V14.01,2013-08-12 18:18:00,
2013-08-12 14:23:00,79.0,47.5,0.00,WSW,246,4.0,6.7,33,0.00,,,0.00,VWS V14.01,2013-08-12 18:23:00,
2013-08-12 14:28:00,79.0,47.5,0.00,WNW,297,1.8,6.7,33,0.00,,,0.00,VWS V14.01,2013-08-12 18:28:00,
2013-08-12 14:33:00,79.5,47.9,0.00,West,275,4.4,6.7,33,0.00,,,0.00,VWS V14.01,2013-08-12 18:33:00,
2013-08-12 14:38:00,80.2,48.5,0.00,SW,233,1.8,8.0,33,0.00,,,0.00,VWS V14.01,2013-08-12 18:38:00,
2013-08-12 14:43:00,80.2,47.7,0.00,WNW,282,4.4,8.0,32,0.00,,,0.00,VWS V14.01,2013-08-12 18:43:00,
2013-08-12 14:48:00,79.9,47.4,0.00,West,275,5.8,8.0,32,0.00,,,0.00,VWS V14.01,2013-08-12 18:48:00,
2013-08-12 14:53:00,79.7,47.3,0.00,West,267,4.9,8.0,32,0.00,,,0.00,VWS V14.01,2013-08-12 18:53:00,
2013-08-12 14:58:00,79.3,47.0,0.00,WNW,286,5.3,8.0,32,0.00,,,0.00,VWS V14.01,2013-08-12 18:58:00,
2013-08-12 15:00:00,77.9,48.1,0.00,West,261,4.0,6.7,35,0.00,,,0.00,VWS V15.00,2013-08-12 19:00:00,
2013-08-12 15:03:00,79.0,47.5,0.00,West,280,5.3,5.3,33,0.00,,,0.00,VWS V14.01,2013-08-12 19:03:00,
2013-08-12 15:08:00,78.8,48.1,0.00,SSW,197,4.0,6.7,34,0.00,,,0.00,VWS V14.01,2013-08-12 19:08:00,
2013-08-12 15:13:00,78.8,47.3,0.00,WNW,303,5.8,6.7,33,0.00,,,0.00,VWS V14.01,2013-08-12 19:13:00,
2013-08-12 15:18:00,78.4,47.8,0.00,West,271,4.4,6.7,34,0.00,,,0.00,VWS V14.01,2013-08-12 19:18:00,
2013-08-12 15:23:00,77.9,47.3,0.00,WNW,283,4.9,6.7,34,0.00,,,0.00,VWS V14.01,2013-08-12 19:23:00,
2013-08-12 15:28:00,77.2,48.2,0.00,WNW,296,5.3,6.7,36,0.00,,,0.00,VWS V14.01,2013-08-12 19:28:00,
2013-08-12 15:33:00,77.2,48.9,0.00,WSW,258,4.4,7.1,37,0.00,,,0.00,VWS V14.01,2013-08-12 19:33:00,
2013-08-12 15:38:00,76.8,50.0,0.00,WSW,258,7.1,8.0,39,0.00,,,0.00,VWS V14.01,2013-08-12 19:38:00,
2013-08-12 15:43:00,76.3,50.2,0.00,West,276,4.9,8.0,40,0.00,,,0.00,VWS V14.01,2013-08-12 19:43:00,
2013-08-12 15:48:00,76.1,50.7,0.00,West,271,4.9,8.0,41,0.00,,,0.00,VWS V14.01,2013-08-12 19:48:00,
2013-08-12 15:53:00,75.7,51.0,0.00,West,281,4.9,8.0,42,0.00,,,0.00,VWS V14.01,2013-08-12 19:53:00,
2013-08-12 15:58:00,75.7,51.7,0.00,West,277,5.3,8.0,43,0.00,,,0.00,VWS V14.01,2013-08-12 19:58:00,
2013-08-12 16:00:00,79.2,46.8,0.00,West,265,5.3,8.0,32,0.00,,,0.00,VWS V15.00,2013-08-12 20:00:00,
2013-08-12 16:03:00,75.9,51.2,0.00,WNW,288,4.9,7.6,42,0.00,,,0.00,VWS V14.01,2013-08-12 20:03:00,
2013-08-12 16:08:00,76.3,51.5,0.00,West,280,4.4,7.6,42,0.00,,,0.00,VWS V14.01,2013-08-12 20:08:00,
2013-08-12 16:13:00,76.3,50.9,0.00,West,259,4.0,7.6,41,0.00,,,0.00,VWS V14.01,2013-08-12 20:13:00,
2013-08-12 16:18:00,76.6,51.2,0.00,West,259,1.8,7.6,41,0.00,,,0.00,VWS V14.01,2013-08-12 20:18:00,
2013-08-12 16:23:00,77.0,50.2,0.00,WSW,252,4.4,7.6,39,0.00,,,0.00,VWS V14.01,2013-08-12 20:23:00,
2013-08-12 16:28:00,76.8,50.0,0.00,West,271,4.9,7.6,39,0.00,,,0.00,VWS V14.01,2013-08-12 20:28:00,
2013-08-12 16:33:00,76.5,49.7,0.00,WNW,283,5.3,7.6,39,0.00,,,0.00,VWS V14.01,2013-08-12 20:33:00,
2013-08-12 16:38:00,76.3,50.2,0.00,SW,231,4.4,7.6,40,0.00,,,0.00,VWS V14.01,2013-08-12 20:38:00,
2013-08-12 16:43:00,76.8,50.7,0.00,West,273,5.3,7.6,40,0.00,,,0.00,VWS V14.01,2013-08-12 20:43:00,
2013-08-12 16:48:00,77.4,50.5,0.00,SW,235,1.8,7.6,39,0.00,,,0.00,VWS V14.01,2013-08-12 20:48:00,
2013-08-12 16:53:00,77.2,49.6,0.00,West,275,4.0,7.6,38,0.00,,,0.00,VWS V14.01,2013-08-12 20:53:00,
2013-08-12 16:58:00,76.8,49.3,0.00,West,280,1.8,7.6,38,0.00,,,0.00,VWS V14.01,2013-08-12 20:58:00,
2013-08-12 17:00:00,75.7,51.7,0.00,West,279,4.0,8.0,43,0.00,,,0.00,VWS V15.00,2013-08-12 21:00:00,
2013-08-12 17:03:00,77.2,49.6,0.00,West,281,4.9,5.3,38,0.00,,,0.00,VWS V14.01,2013-08-12 21:03:00,
2013-08-12 17:08:00,78.3,50.6,0.00,West,271,4.4,5.8,38,0.00,,,0.00,VWS V14.01,2013-08-12 21:08:00,
2013-08-12 17:13:00,78.8,48.9,0.00,West,261,1.8,5.8,35,0.00,,,0.00,VWS V14.01,2013-08-12 21:13:00,
2013-08-12 17:18:00,79.2,48.4,0.00,WNW,285,5.3,6.7,34,0.00,,,0.00,VWS V14.01,2013-08-12 21:18:00,
2013-08-12 17:23:00,79.5,48.7,0.00,West,262,4.4,6.7,34,0.00,,,0.00,VWS V14.01,2013-08-12 21:23:00,
2013-08-12 17:28:00,81.3,48.7,0.00,West,263,1.8,6.7,32,0.00,,,0.00,VWS V14.01,2013-08-12 21:28:00,
2013-08-12 17:33:00,83.8,50.0,0.00,West,272,4.4,6.7,31,0.00,,,0.00,VWS V14.01,2013-08-12 21:33:00,
2013-08-12 17:38:00,85.5,46.7,0.00,WNW,286,4.9,6.7,26,0.00,,,0.00,VWS V14.01,2013-08-12 21:38:00,
2013-08-12 17:43:00,82.4,47.0,0.00,West,281,5.3,6.7,29,0.00,,,0.00,VWS V14.01,2013-08-12 21:43:00,
2013-08-12 17:48:00,82.4,47.0,0.00,WSW,243,1.8,6.7,29,0.00,,,0.00,VWS V14.01,2013-08-12 21:48:00,
2013-08-12 17:53:00,81.1,45.9,0.00,West,263,1.8,6.7,29,0.00,,,0.00,VWS V14.01,2013-08-12 21:53:00,
2013-08-12 17:58:00,81.0,45.8,0.00,West,260,4.0,6.7,29,0.00,,,0.00,VWS V14.01,2013-08-12 21:58:00,
2013-08-12 18:00:00,77.0,49.5,0.00,West,263,4.0,7.6,38,0.00,,,0.00,VWS V15.00,2013-08-12 22:00:00,
2013-08-12 18:03:00,81.1,45.9,0.00,WSW,258,4.9,4.9,29,0.00,,,0.00,VWS V14.01,2013-08-12 22:03:00,
2013-08-12 18:08:00,80.1,45.9,0.00,West,279,5.3,5.3,30,0.00,,,0.00,VWS V14.01,2013-08-12 22:08:00,
2013-08-12 18:13:00,79.2,45.1,0.00,West,265,1.8,5.3,30,0.00,,,0.00,VWS V14.01,2013-08-12 22:13:00,
2013-08-12 18:18:00,78.6,44.6,0.00,West,270,1.8,5.3,30,0.00,,,0.00,VWS V14.01,2013-08-12 22:18:00,
2013-08-12 18:23:00,77.9,44.0,0.00,West,275,4.0,5.3,30,0.00,,,0.00,VWS V14.01,2013-08-12 22:23:00,
2013-08-12 18:28:00,77.9,44.9,0.00,West,271,1.8,5.3,31,0.00,,,0.00,VWS V14.01,2013-08-12 22:28:00,
2013-08-12 18:33:00,77.7,44.7,0.00,West,264,4.9,5.3,31,0.00,,,0.00,VWS V14.01,2013-08-12 22:33:00,
2013-08-12 18:38:00,77.0,44.9,0.00,WSW,242,1.8,5.3,32,0.00,,,0.00,VWS V14.01,2013-08-12 22:38:00,
2013-08-12 18:43:00,75.9,44.8,0.00,WNW,289,1.8,5.3,33,0.00,,,0.00,VWS V14.01,2013-08-12 22:43:00,
2013-08-12 18:48:00,75.2,44.2,0.00,West,280,1.8,5.3,33,0.00,,,0.00,VWS V14.01,2013-08-12 22:48:00,
2013-08-12 18:53:00,74.5,44.3,0.00,West,264,1.8,5.3,34,0.00,,,0.00,VWS V14.01,2013-08-12 22:53:00,
2013-08-12 18:58:00,74.1,44.8,0.00,WNW,288,1.8,5.3,35,0.00,,,0.00,VWS V14.01,2013-08-12 22:58:00,
2013-08-12 19:00:00,81.1,46.8,0.00,WNW,282,4.0,6.7,30,0.00,,,0.00,VWS V15.00,2013-08-12 23:00:00,
2013-08-12 19:03:00,73.8,44.4,0.00,West,263,1.8,1.8,35,0.00,,,0.00,VWS V14.01,2013-08-12 23:03:00,
2013-08-12 19:08:00,73.6,45.0,0.00,NW,306,1.8,4.9,36,0.00,,,0.00,VWS V14.01,2013-08-12 23:08:00,
2013-08-12 19:13:00,73.6,45.7,0.00,WSW,258,1.8,4.9,37,0.00,,,0.00,VWS V14.01,2013-08-12 23:13:00,
2013-08-12 19:18:00,73.4,45.6,0.00,West,272,1.8,4.9,37,0.00,,,0.00,VWS V14.01,2013-08-12 23:18:00,
2013-08-12 19:23:00,73.4,46.3,0.00,SW,222,1.8,5.8,38,0.00,,,0.00,VWS V14.01,2013-08-12 23:23:00,
2013-08-12 19:28:00,73.2,46.8,0.00,WSW,248,1.8,5.8,39,0.00,,,0.00,VWS V14.01,2013-08-12 23:28:00,
2013-08-12 19:33:00,73.2,46.8,0.00,West,276,1.8,5.8,39,0.00,,,0.00,VWS V14.01,2013-08-12 23:33:00,
2013-08-12 19:38:00,72.9,47.2,0.00,WSW,244,1.8,5.8,40,0.00,,,0.00,VWS V14.01,2013-08-12 23:38:00,
2013-08-12 19:43:00,72.7,46.3,0.00,West,261,1.8,5.8,39,0.00,,,0.00,VWS V14.01,2013-08-12 23:43:00,
2013-08-12 19:48:00,72.5,46.8,0.00,SW,221,1.8,5.8,40,0.00,,,0.00,VWS V14.01,2013-08-12 23:48:00,
2013-08-12 19:53:00,72.3,46.7,0.00,SSW,212,1.8,5.8,40,0.00,,,0.00,VWS V14.01,2013-08-12 23:53:00,
2013-08-12 19:58:00,72.1,46.5,0.00,SW,235,1.8,5.8,40,0.00,,,0.00,VWS V14.01,2013-08-12 23:58:00,
2013-08-12 20:00:00,73.9,44.6,0.00,WNW,288,1.8,5.3,35,0.00,,,0.00,VWS V15.00,2013-08-13 00:00:00,
2013-08-12 20:03:00,72.1,47.2,0.00,SSW,199,1.8,4.9,41,0.00,,,0.00,VWS V14.01,2013-08-13 00:03:00,
2013-08-12 20:08:00,72.0,47.0,0.00,SSW,197,1.8,4.9,41,0.00,,,0.00,VWS V14.01,2013-08-13 00:08:00,
2013-08-12 20:13:00,72.0,47.0,0.00,SSW,198,1.8,4.9,41,0.00,,,0.00,VWS V14.01,2013-08-13 00:13:00,
2013-08-12 20:18:00,71.8,47.5,0.00,SSW,199,1.8,4.9,42,0.00,,,0.00,VWS V14.01,2013-08-13 00:18:00,
2013-08-12 20:23:00,71.6,47.3,0.00,SW,228,1.8,4.9,42,0.00,,,0.00,VWS V14.01,2013-08-13 00:23:00,
2013-08-12 20:28:00,71.6,47.3,0.00,SW,217,1.8,4.9,42,0.00,,,0.00,VWS V14.01,2013-08-13 00:28:00,
2013-08-12 20:33:00,71.4,47.8,0.00,SSW,212,1.8,5.3,43,0.00,,,0.00,VWS V14.01,2013-08-13 00:33:00,
2013-08-12 20:38:00,71.4,47.8,0.00,South,186,1.8,5.3,43,0.00,,,0.00,VWS V14.01,2013-08-13 00:38:00,
2013-08-12 20:43:00,71.2,48.2,0.00,SSW,210,1.8,5.3,44,0.00,,,0.00,VWS V14.01,2013-08-13 00:43:00,
2013-08-12 20:48:00,71.1,48.1,0.00,South,187,1.8,5.3,44,0.00,,,0.00,VWS V14.01,2013-08-13 00:48:00,
2013-08-12 20:53:00,70.9,48.5,0.00,SSW,196,1.8,5.3,45,0.00,,,0.00,VWS V14.01,2013-08-13 00:53:00,
2013-08-12 20:58:00,70.7,48.9,0.00,SSW,201,1.8,5.3,46,0.00,,,0.00,VWS V14.01,2013-08-13 00:58:00,
2013-08-12 21:00:00,72.1,46.5,0.00,SW,222,1.8,5.8,40,0.00,,,0.00,VWS V15.00,2013-08-13 01:00:00,
2013-08-12 21:03:00,70.5,48.8,0.00,SSW,201,1.8,1.8,46,0.00,,,0.00,VWS V14.01,2013-08-13 01:03:00,
2013-08-12 21:08:00,70.3,49.2,0.00,SW,218,1.8,1.8,47,0.00,,,0.00,VWS V14.01,2013-08-13 01:08:00,
2013-08-12 21:13:00,70.3,49.7,0.00,SSW,199,1.8,1.8,48,0.00,,,0.00,VWS V14.01,2013-08-13 01:13:00,
2013-08-12 21:18:00,70.2,49.6,0.00,SSW,205,1.8,4.4,48,0.00,,,0.00,VWS V14.01,2013-08-13 01:18:00,
2013-08-12 21:23:00,70.3,50.8,0.00,SW,217,1.8,4.4,50,0.00,,,0.00,VWS V14.01,2013-08-13 01:23:00,
2013-08-12 21:28:00,70.3,51.4,0.00,SSW,193,1.8,4.4,51,0.00,,,0.00,VWS V14.01,2013-08-13 01:28:00,
2013-08-12 21:33:00,70.2,51.7,0.00,South,185,1.8,4.4,52,0.00,,,0.00,VWS V14.01,2013-08-13 01:33:00,
2013-08-12 21:38:00,70.2,51.7,0.00,SSW,205,1.8,4.4,52,0.00,,,0.00,VWS V14.01,2013-08-13 01:38:00,
2013-08-12 21:43:00,70.0,52.1,0.00,SSW,208,1.8,4.4,53,0.00,,,0.00,VWS V14.01,2013-08-13 01:43:00,
2013-08-12 21:48:00,70.0,52.6,0.00,SSW,192,1.8,4.4,54,0.00,,,0.00,VWS V14.01,2013-08-13 01:48:00,
2013-08-12 21:53:00,69.8,52.4,0.00,SSW,192,1.8,4.4,54,0.00,,,0.00,VWS V14.01,2013-08-13 01:53:00,
2013-08-12 21:58:00,69.8,52.9,0.00,SSW,192,1.8,4.4,55,0.00,,,0.00,VWS V14.01,2013-08-13 01:58:00,
2013-08-12 22:00:00,70.7,48.9,0.00,SSW,201,1.8,5.3,46,0.00,,,0.00,VWS V15.00,2013-08-13 02:00:00,
2013-08-12 22:03:00,69.6,53.2,0.00,SSW,192,1.8,1.8,56,0.00,,,0.00,VWS V14.01,2013-08-13 02:03:00,
2013-08-12 22:08:00,69.4,53.1,0.00,South,177,1.8,1.8,56,0.00,,,0.00,VWS V14.01,2013-08-13 02:08:00,
2013-08-12 22:13:00,69.4,53.6,0.00,South,177,1.8,1.8,57,0.00,,,0.00,VWS V14.01,2013-08-13 02:13:00,
2013-08-12 22:18:00,69.3,53.9,0.00,South,177,1.8,1.8,58,0.00,,,0.00,VWS V14.01,2013-08-13 02:18:00,
2013-08-12 22:23:00,69.3,53.9,0.00,South,177,1.8,1.8,58,0.00,,,0.00,VWS V14.01,2013-08-13 02:23:00,
2013-08-12 22:28:00,69.3,54.3,0.00,South,177,1.8,1.8,59,0.00,,,0.00,VWS V14.01,2013-08-13 02:28:00,
2013-08-12 22:33:00,69.3,54.3,0.00,South,177,1.8,1.8,59,0.00,,,0.00,VWS V14.01,2013-08-13 02:33:00,
2013-08-12 22:38:00,69.3,54.8,0.00,SW,217,1.8,1.8,60,0.00,,,0.00,VWS V14.01,2013-08-13 02:38:00,
2013-08-12 22:43:00,69.3,54.8,0.00,SSW,200,1.8,1.8,60,0.00,,,0.00,VWS V14.01,2013-08-13 02:43:00,
2013-08-12 22:48:00,69.3,55.2,0.00,SSW,200,1.8,1.8,61,0.00,,,0.00,VWS V14.01,2013-08-13 02:48:00,
2013-08-12 22:53:00,69.1,55.5,0.00,SSW,200,1.8,1.8,62,0.00,,,0.00,VWS V14.01,2013-08-13 02:53:00,
2013-08-12 22:58:00,69.1,55.5,0.00,SSW,200,1.8,1.8,62,0.00,,,0.00,VWS V14.01,2013-08-13 02:58:00,
2013-08-12 23:00:00,69.6,52.8,0.00,SSW,192,1.8,4.4,55,0.00,,,0.00,VWS V15.00,2013-08-13 03:00:00,
2013-08-12 23:03:00,69.1,55.5,0.00,SSW,200,1.8,1.8,62,0.00,,,0.00,VWS V14.01,2013-08-13 03:03:00,
2013-08-12 23:08:00,69.1,56.0,0.00,SSW,200,1.8,1.8,63,0.00,,,0.00,VWS V14.01,2013-08-13 03:08:00,
2013-08-12 23:13:00,68.9,55.8,0.00,SSW,200,1.8,1.8,63,0.00,,,0.00,VWS V14.01,2013-08-13 03:13:00,
2013-08-12 23:18:00,68.9,56.2,0.00,SSW,200,1.8,1.8,64,0.00,,,0.00,VWS V14.01,2013-08-13 03:18:00,
2013-08-12 23:23:00,68.7,56.1,0.00,SSW,200,1.8,1.8,64,0.00,,,0.00,VWS V14.01,2013-08-13 03:23:00,
2013-08-12 23:28:00,68.7,56.1,0.00,SSW,200,1.8,1.8,64,0.00,,,0.00,VWS V14.01,2013-08-13 03:28:00,
2013-08-12 23:33:00,68.7,56.5,0.00,SSW,200,1.8,1.8,65,0.00,,,0.00,VWS V14.01,2013-08-13 03:33:00,
2013-08-12 23:38:00,68.7,56.5,0.00,SSW,200,1.8,1.8,65,0.00,,,0.00,VWS V14.01,2013-08-13 03:38:00,
2013-08-12 23:43:00,69.1,57.3,0.00,SSW,200,1.8,1.8,66,0.00,,,0.00,VWS V14.01,2013-08-13 03:43:00,
2013-08-12 23:48:00,69.3,57.4,0.00,SSW,200,1.8,1.8,66,0.00,,,0.00,VWS V14.01,2013-08-13 03:48:00,
2013-08-12 23:53:00,69.3,57.4,0.00,SSW,200,1.8,1.8,66,0.00,,,0.00,VWS V14.01,2013-08-13 03:53:00,
2013-08-12 23:58:00,69.3,57.8,0.00,SSW,200,1.8,1.8,67,0.00,,,0.00,VWS V14.01,2013-08-13 03:58:00,